www.pogodaiklimat.ru

Погода и климат >> Архив погоды >> Россия >> Дагестан >> Хасавюрт


ПОГОДА в Хасавюрте

АРХИВ ПОГОДЫ в Хасавюрте

Время (UTC), дата Ветер
(напр.,м/с)
 
Видим.   Явления Облачность Т
(С)
Тd
(С)
f
(%)
Тe
(С)
Тes
(С)
Комфортность P
(гПа)
Po
(гПа)
Тmin
(С)
Tmax
(С)
R
(мм)
R24
(мм)
S
(см)
12 13.05 З 4
{14}
50 км {ливн. осадки} 8/8 600 м
[Cb cap]
+20.7 +10.3 51 +23 +24 комфорт 1018.0 1005.6
15 13.05 ЮВ 2 50 км 8/8 1000 м
[Cb cap]
+19.5 +11.4 59 +21 +22 комфорт 1018.1 1005.6 +22.0 0.3
18 13.05 ЮЗ 2 50 км 3/0
[Ac As]
+17.5 +9.8 61 +18 +18 тепло 1019.0 1006.5
21 13.05 ЮЗ 3 50 км 3/3 1000 м
[Cu hum]
+15.7 +10.3 70 +15 +15 тепло 1018.0 1005.4
00 14.05 ЮЗ 3 50 км 5/0
[Ac As]
+14.2 +8.2 67 +13 +13 по сезону 1017.8 1005.1
03 14.05 ЮЗ 3 50 км 4/4 1000 м
[Cu med, cong]
+15.3 +9.2 67 +15 +15 тепло 1018.8 1006.2 +13.7
06 14.05 СЗ 2 50 км ясно +21.7 +12.4 55 +24 +36 комфорт 1018.3 1005.9
09 14.05 СЗ 2 50 км 3/0
[Ac trans]
+25.1 +10.4 40 +26 +41 жарко 1017.2 1005.0
12 14.05 З 2 50 км 6/6 1000 м
[Cu med, cong]
+26.3 +10.6 37 +27 +32 жарко 1016.2 1004.0
15 14.05 З 2 50 км 4/4 1000 м
[Cu med, cong]
+24.5 +9.6 39 +25 +26 комфорт 1015.9 1003.7 +26.8
18 14.05 ЮЗ 2 50 км 4/0
[Ac trans]
+19.1 +10.9 59 +21 +21 комфорт 1017.2 1004.7
21 14.05 ЮЗ 3 50 км 4/4 1000 м
[Cu hum]
+18.3 +10.3 60 +19 +19 тепло 1017.1 1004.6
00 15.05 ЮЗ 2 20 км 10/10 600 м
[Cb cap]
+18.2 +10.0 59 +19 +19 тепло 1016.6 1004.1
03 15.05 ЮЗ 2 50 км 6/6 1000 м
[Cu med, cong]
+18.3 +10.8 62 +19 +20 тепло 1017.6 1005.1 +16.4
06 15.05 З 4 50 км ясно +23.4 +11.1 46 +26 +34 жарко 1017.2 1004.9
09 15.05 З 5-12
{12}
50 км ясно +27.0 +9.0 32 +27 +37 жарко 1015.7 1003.6
12 15.05 З 4
{12}
50 км ясно +28.2 +8.8 30 +28 +35 жарко 1015.0 1003.0
15 15.05 З 3 50 км ясно +26.4 +9.8 35 +27 +28 жарко 1014.6 1002.5 +28.6
18 15.05 ЮЗ 2 50 км ясно +22.0 +11.4 51 +24 +24 комфорт 1015.4 1003.1
21 15.05 ЮЗ 3 50 км ясно +21.5 +10.0 48 +23 +23 комфорт 1014.4 1002.1
00 16.05 З 2 50 км ясно +19.7 +10.7 56 +22 +22 комфорт 1014.6 1002.2
03 16.05 З 2 50 км ясно +20.4 +12.0 59 +23 +24 комфорт 1014.4 1002.0 +19.4
06 16.05 З 4 50 км ясно +25.6 +12.8 45 +27 +35 жарко 1014.4 1002.3
09 16.05 З 2 50 км ясно +29.1 +13.5 38 +31 +49 жарко 1013.6 1001.6
12 16.05 С 2 н/о н/о +27.7 +14.0 43 +30 +36 жарко 1013.0 1001.0
15 16.05 В 3 50 км 1/1 1000 м
[Cu med, cong]
+24.5 +15.6 58 +28 +28 душно 1013.6 1001.4
18 16.05 ЮВ 1 50 км ясно +19.3 +14.1 72 +22 +22 комфорт 1014.6 1002.2
21 16.05 Ю 1 50 км ясно +16.2 +13.6 85 +17 +17 тепло 1014.0 1001.5
00 17.05 ЮВ 1 50 км ясно +14.0 +12.2 89 +14 +14 тепло 1013.7 1001.0
03 17.05 штиль 0 50 км ясно +17.2 +11.9 71 +17 +19 тепло 1013.7 1001.2 +12.8
06 17.05 В 4 50 км ясно +25.8 +11.8 42 +27 +35 жарко 1013.0 1000.9
09 17.05 В 6-11
{13}
50 км ясно +28.9 +10.6 32 +29 +37 жарко 1012.2 1000.2
12 17.05 В 6-12
{15}
50 км ясно +28.3 +10.7 33 +29 +33 жарко 1011.2 999.2
15 17.05 В 5-10
{15}
50 км ясно +24.4 +11.1 43 +26 +26 жарко 1010.8 998.6 +29.4
18 17.05 В 2
{10}
50 км ясно +18.0 +12.7 71 +19 +19 тепло 1011.2 998.8
21 17.05 В 1 50 км ясно +15.5 +12.8 84 +16 +16 тепло 1010.4 997.9
00 18.05 В 1 50 км ясно +13.0 +11.6 91 +13 +13 по сезону 1010.0 997.4
03 18.05 штиль 0 50 км ясно +13.5 +12.7 95 +13 +15 по сезону 1010.6 998.0 +12.7
06 18.05 В 2 50 км ясно +21.2 +15.7 71 +24 +36 комфорт 1009.8 997.6
09 18.05 В 3 50 км 3/0
[Ac trans]
+27.8 +15.3 46 +30 +43 жарко 1009.1 997.1
12 18.05 В 5
{10}
50 км ясно +26.8 +12.5 41 +28 +34 жарко 1008.1 996.0
15 18.05 В 3
{11}
50 км 4/0
[Ac trans]
+22.1 +14.5 62 +25 +26 комфорт 1007.5 995.3 +28.1
18 18.05 В 1 50 км 8/8 1000 м
[Cb cap]
+17.3 +14.5 84 +18 +18 тепло 1009.0 996.6
21 18.05 В 1 50 км 8/8 1000 м
[Cu med, cong]
+16.0 +14.3 90 +17 +17 тепло 1007.7 995.3
00 19.05 В 1 20 км 10/10 600 м
[Cb cap]
+16.0 +14.7 92 +17 +17 тепло 1007.2 994.8
03 19.05 штиль 0 20 км 10/10 600 м
[Cb cap]
+16.3 +14.4 89 +16 +16 тепло 1007.9 995.4 +15.7
06 19.05 СЗ 1 50 км 8/8 1000 м
[Cu med, cong]
+21.0 +15.1 69 +25 +28 комфорт 1008.5 996.2
09 19.05 С 1 50 км ясно +26.2 +15.5 52 +29 +51 опасность
солнечного
удара
1008.2 996.2
12 19.05 СВ 2 50 км 8/8 1000 м
[Cu med, cong]
+27.6 +14.7 45 +30 +32 жарко 1007.9 995.9
15 19.05 С 1 20 км 10/10 600 м
[Cb cap]
+23.7 +14.8 57 +26 +26 жарко 1009.9 997.8 +29.7
18 19.05 штиль 0 20 км 10/10 600 м
[Cb cap]
+19.9 +14.8 72 +22 +22 комфорт 1011.6 999.3
21 19.05 штиль 0 н/о {ливн. осадки} н/о +18.3 +14.6 79 +19 +19 тепло 1011.9 999.5
00 20.05 Ю 1 н/о н/о +17.7 +13.9 78 +19 +19 тепло 1012.2 999.8
03 20.05 штиль 0 50 км ясно +17.2 +14.7 85 +17 +19 тепло 1012.4 999.9 +15.8 0.3
06 20.05 СВ 2 50 км 6/6 1000 м
[Cu med, cong]
+24.4 +13.6 51 +27 +32 жарко 1013.0 1000.8
09 20.05 В 2 20 км 10/10 600 м
[Cb cap]
+21.2 +11.9 55 +23 +23 комфорт 1014.9 1002.5

 

Местоположение метеостанции Хасавюрт (Дагестан, Россия): широта 43.25 долгота 46.58 высота над уровнем моря 117 м.

В архиве по умолчанию представлена погода в Хасавюрте за последнюю неделю. Архивные данные за месяц целиком и за предыдущие месяцы, начиная с января 2011 года, Вы можете получить, выбрав интересующий диапазон дат из раскрывающегося списка и нажав кнопку "Ввод!".


*Определитесь, кто Вы:
робот инопланетянин человек

Внимание! Время в таблицах - всемирное. Для получения местного времени необходимо прибавить поправку, которая равна 3 ч.

Смотрите также архив погоды в соседних городах и на ближайших метеорологических станциях:

Погода в Шелковской (Чечня, Россия) (35 км)
Погода в Гудермесе (Чечня, Россия) (39 км)
Погода в Бабаюрте (Дагестан, Россия) (42 км)
Погода в Буйнакске (Дагестан, Россия) (65 км)
Погода в Кизляре (Дагестан, Россия) (65 км)
Погода в Грозном (Чечня, Россия) (70 км)
Погода в Хунзахе (Дагестан, Россия) (76 км)
Погода в Махачкале (Дагестан, Россия) (77 км)
Погода в Шатое (Чечня, Россия) (84 км)
Погода в Гунибе (Дагестан, Россия) (100 км)

Пояснения к столбцам:

Ветер - указаны скорость ветра в м/с - средняя за 10 мин, порывы в срок и между сроками (в фигурных скобках) и направление, откуда дует ветер: С - северный, СВ - северо-восточный, В - восточный, ЮВ - юго-восточный, Ю - южный, ЮЗ - юго-западный, З - западный, СЗ - северо-западный.
Видимость - горизонтальная дальность видимости в метрах или километрах. При видимости от 1 до 10 км при отсутствии осадков обычно наблюдается дымка, при ухудшении видимости до 1 км и менее - туман. В сухую погоду видимость может ухудшаться дымом, пылью или мглою.
Явления - указаны атмосферные явления, наблюдавшиеся в срок или в последний час перед сроком; фигурными скобками обозначены явления, наблюдавшиеся между сроками (за 1-3 часа до срока); квадратными скобками обозначены град или гололедные отложения с указанием их диаметра в мм.
Облачность - указаны через наклонную черту общая и нижняя облачность в баллах и высота нижней границы облаков в метрах; квадратными скобками обозначены формы облаков: Ci - перистые, Cs - перисто-слоистые, Cc - перисто-кучевые, Ac - высококучевые, As - высокослоистые, Sc - слоисто-кучевые, Ns - слоисто-дождевые, Cu - кучевые, Cb - кучево-дождевые. Подробнее классификацию облаков см. в Атласе облаков (PDF).
T - Температура воздуха - температура, измеренная на высоте 2 м над землей.
Td - Температура точки росы - температура, при понижении до которой содержащийся в воздухе водяной пар достигнет насыщения.
f - Относительная влажность воздуха - влажноcть воздуха, измеренная на высоте 2 м над землей.
Te - Эффективная температура - температура, которую ощущает одетый по сезону человек в тени. Характеристика душности погоды. При расчете учитывается влияние влажности воздуха и скорости ветра на теплоощущения человека.
Tes - Эффективная температура на солнце - температура, которую ощущает человек, с поправкой на солнечный нагрев. Характеристика знойности погоды. Зависит от высоты солнца над горизонтом, облачности и скорости ветра. Ночью, в пасмурную погоду, а также при ветре 12 м/с и более поправка равна нулю.
P - Атмосферное давление - приведенное к уровню моря атмосферное давление.
Po - Атмосферное давление - измеренное на уровне метеостанции атмосферное давление.
Tmin - Минимальная температура - минимум температуры воздуха на высоте 2 м над землей.
Tmax - Максимальная температура - максимум температуры воздуха на высоте 2 м над землей.
R - Количество осадков - Количество выпавших осадков за период времени, мм. При наведении курсора мыши на число - период времени, за который выпало указанное количество осадков.
R24 - Количество осадков - Количество выпавших осадков за 24 часа, мм.
S - Снежный покров - Высота снежного покрова, см. При наведении курсора мыши на число - состояние снежного покрова и степень покрытия местности в баллах.